Find Telecom 2B

NORAD ID: 21939 Int'l Des: 1992-021 Owner: FTEL Country: F operational
HEOCIRCULAR

リアルタイム位置

3D地球を読み込み中...

Telecom 2Bについて

説明を読み込み中...

次回通過

Passes for default location (London). Set your location on the main map for personalized predictions.

高度履歴

Loading altitude history...

軌道要素

1 21939U 92021A 26106.39558582 .00000023 00000-0 00000+0 0 9992
2 21939 14.5266 4.1909 0013693 72.2786 110.4171 0.99511854116776
Epoch: Apr 16, 2026 • Age: 31 hours

現在のステータス

高度 36050.8 km
速度 3.06 km/s
衛星直下点 -13.89°S, 163.18°W
打ち上げ日 Apr 15, 1992
運用期間 34 years
タイプ other

技術仕様

分類 Payload
質量 2275.00 kg
乾燥質量 1130.00 kg
総質量 2275.00 kg
長さ 3.10 m
直径 1.90 m
スパン 22.00 m
形状 Box + 2 Pan
製造者 MMST
バスタイプ Eurostar 2000
フェーズステータス In Orbit
所有者/国 FTEL/F

Most Searched